When you browse on this site, cookies collect data to enhance your experience and personalize the content and advertising you see.
Visit our Privacy Policy to learn more. By continuing to use the site, you agree to this use of cookies and data.
  • Em Portugal
  • Lista de países
  • Para 7 dias
  • Temperatura da água
  • Mapa do tempo
  • Widgets de tempo
  • user-avatar
    Iniciar Sessão

    Previsão horária em Khulna

    Hoje, 25 Agosto, Domingo

    Tempo Temperatura Precipitação Vento Pressão Humidade
    00:00 +28°C° 0 mm 2 m/s 752 mmHg 90%
    01:00 +28°C° 1 mm 2 m/s 751 mmHg 90%
    02:00 +28°C° 1 mm 2 m/s 751 mmHg 90%
    03:00 +28°C° 1 mm 2 m/s 750 mmHg 90%
    04:00 +28°C° 1.7 mm 2 m/s 750 mmHg 90%
    05:00 +28°C° 1.7 mm 3 m/s 751 mmHg 89%
    06:00 +28°C° 1.7 mm 3 m/s 751 mmHg 89%
    07:00 +28°C° 0.3 mm 3 m/s 751 mmHg 88%
    08:00 +29°C° 0.3 mm 3 m/s 751 mmHg 87%
    09:00 +29°C° 0.3 mm 4 m/s 752 mmHg 87%
    10:00 +30°C° 0.8 mm 4 m/s 751 mmHg 83%
    11:00 +32°C° 0.8 mm 4 m/s 751 mmHg 80%
    12:00 +33°C° 0.8 mm 4 m/s 751 mmHg 76%
    13:00 +34°C° 1.1 mm 5 m/s 751 mmHg 74%
    14:00 +34°C° 1.1 mm 5 m/s 750 mmHg 71%
    15:00 +35°C° 1.1 mm 5 m/s 749 mmHg 69%
    16:00 +34°C° 0 mm 4 m/s 749 mmHg 72%
    17:00 +33°C° 0 mm 4 m/s 749 mmHg 75%
    18:00 +31°C° 0 mm 3 m/s 749 mmHg 79%
    19:00 +31°C° 0 mm 3 m/s 749 mmHg 82%
    20:00 +30°C° 0 mm 3 m/s 750 mmHg 85%
    21:00 +29°C° 0 mm 2 m/s 751 mmHg 88%
    22:00 +29°C° 0 mm 2 m/s 751 mmHg 89%
    23:00 +29°C° 0 mm 2 m/s 751 mmHg 90%

    Amanhã, 26 Agosto, Segunda-feira

    Tempo Temperatura Precipitação Vento Pressão Humidade
    00:00 +29°C° 0 mm 2 m/s 751 mmHg 92%
    01:00 +28°C° 0 mm 2 m/s 750 mmHg 92%
    02:00 +28°C° 0 mm 2 m/s 750 mmHg 92%
    03:00 +28°C° 0 mm 2 m/s 750 mmHg 92%
    04:00 +28°C° 0.1 mm 2 m/s 750 mmHg 92%
    05:00 +28°C° 0.1 mm 3 m/s 750 mmHg 91%
    06:00 +28°C° 0.1 mm 3 m/s 751 mmHg 91%
    07:00 +29°C° 0 mm 3 m/s 751 mmHg 85%
    08:00 +31°C° 0 mm 3 m/s 751 mmHg 80%
    09:00 +33°C° 0 mm 3 m/s 751 mmHg 75%
    10:00 +33°C° 1.9 mm 4 m/s 751 mmHg 75%
    11:00 +33°C° 1.9 mm 4 m/s 751 mmHg 74%
    12:00 +34°C° 1.9 mm 4 m/s 751 mmHg 74%
    13:00 +33°C° 0.7 mm 4 m/s 750 mmHg 75%
    14:00 +33°C° 0.7 mm 4 m/s 749 mmHg 75%
    15:00 +33°C° 0.7 mm 4 m/s 749 mmHg 76%
    16:00 +31°C° 0 mm 3 m/s 748 mmHg 79%
    17:00 +31°C° 0 mm 3 m/s 748 mmHg 81%
    18:00 +30°C° 0 mm 2 m/s 748 mmHg 84%
    19:00 +30°C° 0 mm 2 m/s 749 mmHg 86%
    20:00 +29°C° 0 mm 2 m/s 750 mmHg 87%
    21:00 +29°C° 0 mm 2 m/s 750 mmHg 89%
    22:00 +29°C° 0 mm 2 m/s 751 mmHg 90%
    23:00 +28°C° 0 mm 2 m/s 751 mmHg 90%

    Depois de amanhã, 27 Agosto, Terça-feira

    Tempo Temperatura Precipitação Vento Pressão Humidade
    00:00 +28°C° 0 mm 2 m/s 751 mmHg 91%
    01:00 +28°C° 0.1 mm 2 m/s 751 mmHg 92%
    02:00 +28°C° 0.1 mm 2 m/s 750 mmHg 92%
    03:00 +28°C° 0.1 mm 1 m/s 750 mmHg 93%
    04:00 +28°C° 0 mm 1 m/s 750 mmHg 93%
    05:00 +28°C° 0 mm 2 m/s 750 mmHg 94%
    06:00 +28°C° 0 mm 2 m/s 750 mmHg 94%
    07:00 +29°C° 0 mm 2 m/s 750 mmHg 87%
    08:00 +31°C° 0 mm 2 m/s 751 mmHg 81%
    09:00 +33°C° 0 mm 3 m/s 751 mmHg 74%
    10:00 +34°C° 0 mm 3 m/s 751 mmHg 70%
    11:00 +35°C° 0 mm 3 m/s 750 mmHg 66%
    12:00 +36°C° 0 mm 2 m/s 750 mmHg 63%
    13:00 +36°C° 0 mm 2 m/s 749 mmHg 62%
    14:00 +36°C° 0 mm 2 m/s 749 mmHg 61%
    15:00 +36°C° 0 mm 2 m/s 748 mmHg 60%
    16:00 +36°C° 0 mm 2 m/s 748 mmHg 65%
    17:00 +35°C° 0 mm 3 m/s 748 mmHg 70%
    18:00 +34°C° 0 mm 3 m/s 748 mmHg 75%
    19:00 +33°C° 0 mm 3 m/s 749 mmHg 78%
    20:00 +31°C° 0 mm 2 m/s 750 mmHg 80%
    21:00 +30°C° 0 mm 2 m/s 751 mmHg 83%
    22:00 +30°C° 0 mm 2 m/s 751 mmHg 84%
    23:00 +29°C° 0 mm 2 m/s 751 mmHg 85%

    28 Agosto, Quarta-feira

    Tempo Temperatura Precipitação Vento Pressão Humidade
    00:00 +29°C° 0 mm 1 m/s 751 mmHg 86%
    01:00 +29°C° 0 mm 1 m/s 750 mmHg 86%
    02:00 +29°C° 0 mm 1 m/s 750 mmHg 87%
    03:00 +27°C° 0 mm 0 m/s 750 mmHg 87%
    04:00 +29°C° 0 mm 1 m/s 750 mmHg 88%
    05:00 +28°C° 0 mm 1 m/s 750 mmHg 89%
    06:00 +28°C° 0 mm 1 m/s 750 mmHg 89%
    07:00 +30°C° 0 mm 2 m/s 750 mmHg 83%
    08:00 +31°C° 0 mm 2 m/s 751 mmHg 77%
    09:00 +34°C° 0 mm 2 m/s 751 mmHg 71%
    10:00 +35°C° 0 mm 2 m/s 751 mmHg 66%
    11:00 +36°C° 0 mm 2 m/s 751 mmHg 61%
    12:00 +37°C° 0 mm 3 m/s 751 mmHg 56%
    13:00 +37°C° 0.3 mm 3 m/s 750 mmHg 59%
    14:00 +37°C° 0.3 mm 3 m/s 749 mmHg 61%
    15:00 +36°C° 0.3 mm 3 m/s 749 mmHg 63%
    16:00 +35°C° 1.3 mm 2 m/s 749 mmHg 69%
    17:00 +34°C° 1.3 mm 2 m/s 749 mmHg 75%
    18:00 +32°C° 1.3 mm 2 m/s 749 mmHg 81%
    19:00 +31°C° 0 mm 2 m/s 749 mmHg 83%
    20:00 +31°C° 0 mm 2 m/s 750 mmHg 85%
    21:00 +30°C° 0 mm 2 m/s 751 mmHg 87%
    22:00 +30°C° 0 mm 2 m/s 751 mmHg 88%
    23:00 +29°C° 0 mm 2 m/s 751 mmHg 88%

    29 Agosto, Quinta-feira

    Tempo Temperatura Precipitação Vento Pressão Humidade
    00:00 +29°C° 0 mm 1 m/s 751 mmHg 88%
    01:00 +29°C° 0.1 mm 1 m/s 750 mmHg 88%
    02:00 +29°C° 0.1 mm 1 m/s 750 mmHg 88%
    03:00 +29°C° 0.1 mm 1 m/s 750 mmHg 88%
    04:00 +29°C° 0 mm 1 m/s 750 mmHg 87%
    05:00 +29°C° 0 mm 1 m/s 751 mmHg 86%
    06:00 +29°C° 0 mm 1 m/s 751 mmHg 85%
    07:00 +30°C° 0 mm 2 m/s 751 mmHg 82%
    08:00 +31°C° 0 mm 2 m/s 751 mmHg 79%
    09:00 +31°C° 0 mm 3 m/s 752 mmHg 76%
    10:00 +34°C° 0 mm 3 m/s 752 mmHg 70%
    11:00 +35°C° 0 mm 4 m/s 751 mmHg 65%
    12:00 +37°C° 0 mm 4 m/s 751 mmHg 59%
    13:00 +37°C° 0.3 mm 4 m/s 750 mmHg 59%
    14:00 +37°C° 0.3 mm 4 m/s 749 mmHg 60%
    15:00 +37°C° 0.3 mm 4 m/s 749 mmHg 60%
    16:00 +35°C° 0.5 mm 4 m/s 748 mmHg 66%
    17:00 +34°C° 0.5 mm 4 m/s 748 mmHg 71%
    18:00 +33°C° 0.5 mm 4 m/s 748 mmHg 77%
    19:00 +31°C° 0 mm 3 m/s 749 mmHg 80%
    20:00 +30°C° 0 mm 3 m/s 749 mmHg 83%
    21:00 +30°C° 0 mm 2 m/s 750 mmHg 86%
    22:00 +29°C° 0 mm 2 m/s 750 mmHg 87%
    23:00 +29°C° 0 mm 2 m/s 750 mmHg 89%

    30 Agosto, Sexta-feira

    Tempo Temperatura Precipitação Vento Pressão Humidade
    00:00 +29°C° 0 mm 1 m/s 750 mmHg 90%
    01:00 +29°C° 0 mm 2 m/s 750 mmHg 91%
    02:00 +29°C° 0 mm 2 m/s 750 mmHg 91%
    03:00 +29°C° 0 mm 2 m/s 749 mmHg 92%
    04:00 +28°C° 0 mm 2 m/s 749 mmHg 92%
    05:00 +28°C° 0 mm 2 m/s 749 mmHg 93%
    06:00 +28°C° 0 mm 2 m/s 750 mmHg 93%
    07:00 +30°C° 0 mm 2 m/s 750 mmHg 86%
    08:00 +31°C° 0 mm 3 m/s 750 mmHg 80%
    09:00 +34°C° 0 mm 3 m/s 751 mmHg 73%
    10:00 +34°C° 0.4 mm 3 m/s 750 mmHg 70%
    11:00 +35°C° 0.4 mm 4 m/s 750 mmHg 67%
    12:00 +36°C° 0.4 mm 4 m/s 750 mmHg 64%
    13:00 +36°C° 1.1 mm 4 m/s 749 mmHg 64%
    14:00 +36°C° 1.1 mm 4 m/s 748 mmHg 64%
    15:00 +36°C° 1.1 mm 4 m/s 748 mmHg 64%
    16:00 +35°C° 0 mm 4 m/s 748 mmHg 68%
    17:00 +34°C° 0 mm 3 m/s 747 mmHg 72%
    18:00 +33°C° 0 mm 3 m/s 747 mmHg 76%
    19:00 +31°C° 0 mm 3 m/s 748 mmHg 79%
    20:00 +30°C° 0 mm 3 m/s 749 mmHg 82%
    21:00 +29°C° 0 mm 3 m/s 749 mmHg 85%
    22:00 +29°C° 0 mm 2 m/s 749 mmHg 87%
    23:00 +29°C° 0 mm 2 m/s 749 mmHg 88%
    Mostrar mais